Location: Berville
(49.1893°N, 2.0748°E)
Time: 21:08:15
(UTC+00:00)

FENGYUN 1C DEB - Visible Passes

Search period start: 27 February 2024 00:00
Search period end: 08 March 2024 00:00
Orbit: 769 x 961 km, 99.0° (Epoch: 27 February)

Date Brightness Start Highest point End Pass type
(mag) Time Alt. Az. Time Alt. Az. Time Alt. Az.
27 Feb ? 18:50:08 15° ENE 18:51:30 16° NE 18:55:01 10° NNE visible
27 Feb ? 20:32:25 60° NNE 20:32:25 60° NNE 20:37:29 10° NNW visible
27 Feb ? 22:14:44 21° WNW 22:14:44 21° WNW 22:17:41 10° NW visible
28 Feb ? 18:42:21 13° ENE 18:44:04 15° NE 18:47:10 10° NNE visible
28 Feb ? 20:24:39 58° NE 20:24:39 58° NE 20:29:53 10° N visible
28 Feb ? 22:06:57 24° WNW 22:06:57 24° WNW 22:10:17 10° NW visible
29 Feb ? 18:34:35 11° ENE 18:36:39 13° NE 18:39:13 10° NNE visible
29 Feb ? 20:16:53 54° NE 20:16:53 54° NE 20:22:15 10° N visible
29 Feb ? 21:59:11 27° WNW 21:59:11 27° WNW 22:02:52 10° NNW visible
01 Mar ? 18:27:19 10° ENE 18:29:14 12° NE 18:31:07 10° NNE visible
01 Mar ? 20:09:06 49° ENE 20:09:06 49° ENE 20:14:37 10° N visible
01 Mar ? 21:51:24 31° WNW 21:51:24 31° WNW 21:55:25 10° NNW visible
02 Mar ? 18:21:05 10° NE 18:21:48 10° NE 18:22:31 10° NE visible
02 Mar ? 20:01:20 44° ENE 20:01:22 44° ENE 20:06:58 10° N visible
02 Mar ? 21:43:37 35° WNW 21:43:37 35° WNW 21:47:55 10° NNW visible
03 Mar ? 19:53:32 39° ENE 19:53:50 39° ENE 19:59:17 10° N visible
03 Mar ? 21:35:50 40° WNW 21:35:50 40° WNW 21:40:25 10° NNW visible
04 Mar ? 19:45:45 34° ENE 19:46:19 35° ENE 19:51:36 10° N visible
04 Mar ? 21:28:03 45° WNW 21:28:03 45° WNW 21:32:53 10° NNW visible
05 Mar ? 19:37:57 30° ENE 19:38:48 31° ENE 19:43:53 10° N visible
05 Mar ? 21:20:15 52° WNW 21:20:15 52° WNW 21:25:19 10° NNW visible
06 Mar ? 19:30:09 26° ENE 19:31:17 28° ENE 19:36:09 10° N visible
06 Mar ? 21:12:27 60° WNW 21:12:27 60° WNW 21:17:44 10° NNW visible
06 Mar ? 22:54:45 11° WNW 22:54:45 11° WNW 22:55:32 10° WNW visible
07 Mar ? 19:22:21 23° ENE 19:23:46 25° ENE 19:28:24 10° N visible
07 Mar ? 21:04:38 69° WNW 21:04:38 69° WNW 21:10:08 10° NNW visible
07 Mar ? 22:46:56 13° WNW 22:46:56 13° WNW 22:48:46 10° WNW visible
